History for KNYNEWYO395

Chelsea, West 28th St., New York, NY — Current Conditions
Daily Summary for August 22, 2017
  Current: High: Low: Average:
Temperature: 87.4°F 92.7°F 74.3°F 83.5°F
Dew Point: 66.0°F 71.4°F 63.7°F 68.3°F
Humidity: 49% 85% 41% 67%
Wind Speed: 0.0mph 0.0mph - 0.0mph
Wind Gust: 0.0mph 0.0mph - -
Wind: North - - South
Pressure: 29.82in 30.11in 29.82in -
Precipitation: 0.00in      
Solar Radiation: 19 watts/m^2      
UV Index: 1.0      
Statistics for the rest of the month
    High: Low: Average:
Temperature:   92.7°F 63.7°F 77.1°F
Dew Point:   75.4°F 42.6°F 60.6°F
Humidity:   96.0% 25.0% 61.6%
Wind Speed:   9.8mph from the West - 0.1mph
Wind Gust:   17.4mph from the NW - -
Wind:   - - South
Pressure:   30.26in 29.80in -
Precipitation:   3.47in    
KNYNEWYO395 Weather Graph
Tabular Data for August 22, 2017
Time Temp. Heat Index Dew Point Pressure Wind Gust Humidity Rainfall Solar Radiation
00:02 77.0°F - 67.3°F 30.10in 0.0mph 72% 0.00in 0.00 watts/m^2
00:07 77.0°F - 67.3°F 30.11in 0.0mph 72% 0.00in 0.00 watts/m^2
00:12 77.0°F - 67.3°F 30.11in 0.0mph 72% 0.00in 0.00 watts/m^2
00:16 77.0°F - 67.3°F 30.11in 0.0mph 72% 0.00in 0.00 watts/m^2
00:21 77.0°F - 67.3°F 30.10in 0.0mph 72% 0.00in 0.00 watts/m^2
00:26 76.8°F - 67.1°F 30.11in 0.0mph 72% 0.00in 0.00 watts/m^2
00:31 76.8°F - 67.6°F 30.11in 0.0mph 73% 0.00in 0.00 watts/m^2
00:36 76.8°F - 67.6°F 30.11in 0.0mph 73% 0.00in 0.00 watts/m^2
00:41 76.6°F - 67.5°F 30.10in 0.0mph 73% 0.00in 0.00 watts/m^2
00:46 76.5°F - 67.6°F 30.10in 0.0mph 74% 0.00in 0.00 watts/m^2
00:51 76.5°F - 67.3°F 30.09in 0.0mph 73% 0.00in 0.00 watts/m^2
00:56 76.5°F - 67.3°F 30.10in 0.0mph 73% 0.00in 0.00 watts/m^2
01:01 76.3°F - 67.5°F 30.10in 0.0mph 74% 0.00in 0.00 watts/m^2
01:07 76.3°F - 67.5°F 30.09in 0.0mph 74% 0.00in 0.00 watts/m^2
01:12 76.3°F - 67.5°F 30.10in 0.0mph 74% 0.00in 0.00 watts/m^2
01:17 76.1°F - 67.3°F 30.10in 0.0mph 74% 0.00in 0.00 watts/m^2
01:23 76.1°F - 67.3°F 30.10in 0.0mph 74% 0.00in 0.00 watts/m^2
01:28 76.1°F - 67.6°F 30.09in 0.0mph 75% 0.00in 0.00 watts/m^2
01:33 75.9°F - 67.8°F 30.09in 0.0mph 76% 0.00in 0.00 watts/m^2
01:38 75.9°F - 67.5°F 30.08in 0.0mph 75% 0.00in 0.00 watts/m^2
01:43 75.9°F - 67.8°F 30.09in 0.0mph 76% 0.00in 0.00 watts/m^2
01:48 75.7°F - 67.6°F 30.08in 0.0mph 76% 0.00in 0.00 watts/m^2
01:53 75.7°F - 67.6°F 30.08in 0.0mph 76% 0.00in 0.00 watts/m^2
01:58 75.7°F - 67.6°F 30.08in 0.0mph 76% 0.00in 0.00 watts/m^2
02:03 75.7°F - 68.0°F 30.08in 0.0mph 77% 0.00in 0.00 watts/m^2
02:08 75.7°F - 68.0°F 30.08in 0.0mph 77% 0.00in 0.00 watts/m^2
02:13 75.7°F - 68.0°F 30.08in 0.0mph 77% 0.00in 0.00 watts/m^2
02:18 75.7°F - 68.0°F 30.08in 0.0mph 77% 0.00in 0.00 watts/m^2
02:24 75.7°F - 68.0°F 30.07in 0.0mph 77% 0.00in 0.00 watts/m^2
02:29 75.7°F - 68.0°F 30.08in 0.0mph 77% 0.00in 0.00 watts/m^2
02:34 75.7°F - 68.0°F 30.08in 0.0mph 77% 0.00in 0.00 watts/m^2
02:39 75.7°F - 68.4°F 30.08in 0.0mph 78% 0.00in 0.00 watts/m^2
02:44 75.7°F - 68.4°F 30.08in 0.0mph 78% 0.00in 0.00 watts/m^2
02:49 75.7°F - 68.4°F 30.08in 0.0mph 78% 0.00in 0.00 watts/m^2
02:54 75.6°F - 68.7°F 30.08in 0.0mph 79% 0.00in 0.00 watts/m^2
02:59 75.6°F - 68.2°F 30.07in 0.0mph 78% 0.00in 0.00 watts/m^2
03:04 75.6°F - 68.2°F 30.08in 0.0mph 78% 0.00in 0.00 watts/m^2
03:09 75.6°F - 68.7°F 30.07in 0.0mph 79% 0.00in 0.00 watts/m^2
03:14 75.6°F - 68.7°F 30.07in 0.0mph 79% 0.00in 0.00 watts/m^2
03:19 75.6°F - 69.1°F 30.06in 0.0mph 80% 0.00in 0.00 watts/m^2
03:24 75.6°F - 69.1°F 30.07in 0.0mph 80% 0.00in 0.00 watts/m^2
03:29 75.4°F - 68.9°F 30.06in 0.0mph 80% 0.00in 0.00 watts/m^2
03:34 75.4°F - 68.9°F 30.06in 0.0mph 80% 0.00in 0.00 watts/m^2
03:40 75.0°F - 68.9°F 30.06in 0.0mph 81% 0.00in 0.00 watts/m^2
03:45 75.0°F - 68.9°F 30.06in 0.0mph 81% 0.00in 0.00 watts/m^2
03:50 74.8°F - 68.7°F 30.05in 0.0mph 81% 0.00in 0.00 watts/m^2
03:55 74.7°F - 68.5°F 30.05in 0.0mph 81% 0.00in 0.00 watts/m^2
04:00 74.7°F - 68.5°F 30.05in 0.0mph 81% 0.00in 0.00 watts/m^2
04:05 74.5°F - 68.4°F 30.06in 0.0mph 81% 0.00in 0.00 watts/m^2
04:10 74.5°F - 68.7°F 30.05in 0.0mph 82% 0.00in 0.00 watts/m^2
04:15 74.5°F - 68.7°F 30.05in 0.0mph 82% 0.00in 0.00 watts/m^2
04:20 74.5°F - 68.7°F 30.06in 0.0mph 82% 0.00in 0.00 watts/m^2
04:25 74.3°F - 68.9°F 30.06in 0.0mph 83% 0.00in 0.00 watts/m^2
04:30 74.3°F - 68.9°F 30.05in 0.0mph 83% 0.00in 0.00 watts/m^2
04:36 74.3°F - 68.9°F 30.06in 0.0mph 83% 0.00in 0.00 watts/m^2
04:41 74.3°F - 69.3°F 30.06in 0.0mph 84% 0.00in 0.00 watts/m^2
04:46 74.3°F - 69.3°F 30.05in 0.0mph 84% 0.00in 0.00 watts/m^2
04:51 74.3°F - 69.3°F 30.06in 0.0mph 84% 0.00in 0.00 watts/m^2
04:56 74.3°F - 69.3°F 30.05in 0.0mph 84% 0.00in 0.00 watts/m^2
05:01 74.3°F - 69.3°F 30.05in 0.0mph 84% 0.00in 0.00 watts/m^2
05:06 74.3°F - 68.9°F 30.05in 0.0mph 83% 0.00in 0.00 watts/m^2
05:11 74.3°F - 68.9°F 30.04in 0.0mph 83% 0.00in 0.00 watts/m^2
05:16 74.3°F - 68.9°F 30.05in 0.0mph 83% 0.00in 0.00 watts/m^2
05:21 74.3°F - 68.9°F 30.05in 0.0mph 83% 0.00in 0.00 watts/m^2
05:26 74.3°F - 69.3°F 30.04in 0.0mph 84% 0.00in 0.00 watts/m^2
05:31 74.3°F - 69.3°F 30.05in 0.0mph 84% 0.00in 0.00 watts/m^2
05:36 74.3°F - 69.6°F 30.05in 0.0mph 85% 0.00in 0.00 watts/m^2
05:41 74.3°F - 69.3°F 30.04in 0.0mph 84% 0.00in 0.00 watts/m^2
05:46 74.3°F - 69.3°F 30.05in 0.0mph 84% 0.00in 0.00 watts/m^2
05:52 74.3°F - 69.6°F 30.05in 0.0mph 85% 0.00in 0.00 watts/m^2
05:57 74.3°F - 69.6°F 30.05in 0.0mph 85% 0.00in 0.00 watts/m^2
06:02 74.3°F - 69.6°F 30.05in 0.0mph 85% 0.00in 0.00 watts/m^2
06:07 74.3°F - 69.3°F 30.04in 0.0mph 84% 0.00in 0.00 watts/m^2
06:12 74.3°F - 69.3°F 30.05in 0.0mph 84% 0.00in 0.00 watts/m^2
06:17 74.3°F - 69.3°F 30.04in 0.0mph 84% 0.00in 0.00 watts/m^2
06:22 74.3°F - 69.6°F 30.05in 0.0mph 85% 0.00in 0.00 watts/m^2
06:27 74.3°F - 69.3°F 30.04in 0.0mph 84% 0.00in 0.00 watts/m^2
06:32 74.3°F - 69.3°F 30.05in 0.0mph 84% 0.00in 1.06 watts/m^2
06:37 74.3°F - 69.3°F 30.04in 0.0mph 84% 0.00in 3.11 watts/m^2
06:42 74.3°F - 69.3°F 30.05in 0.0mph 84% 0.00in 4.85 watts/m^2
06:46 74.3°F - 69.3°F 30.05in 0.0mph 84% 0.00in 6.42 watts/m^2
06:51 74.3°F - 69.3°F 30.05in 0.0mph 84% 0.00in 8.27 watts/m^2
06:56 74.3°F - 68.9°F 30.05in 0.0mph 83% 0.00in 11.00 watts/m^2
07:01 74.3°F - 69.3°F 30.05in 0.0mph 84% 0.00in 16.69 watts/m^2
07:06 74.3°F - 69.3°F 30.05in 0.0mph 84% 0.00in 19.73 watts/m^2
07:11 74.3°F - 68.9°F 30.05in 0.0mph 83% 0.00in 22.22 watts/m^2
07:16 74.3°F - 68.9°F 30.05in 0.0mph 83% 0.00in 24.84 watts/m^2
07:21 74.5°F - 68.7°F 30.04in 0.0mph 82% 0.00in 29.76 watts/m^2
07:26 74.7°F - 68.5°F 30.04in 0.0mph 81% 0.00in 33.34 watts/m^2
07:32 74.8°F - 69.1°F 30.05in 0.0mph 82% 0.00in 29.33 watts/m^2
07:37 75.0°F - 69.3°F 30.05in 0.0mph 82% 0.00in 34.62 watts/m^2
07:42 75.2°F - 69.4°F 30.04in 0.0mph 82% 0.00in 32.01 watts/m^2
07:47 75.4°F - 69.6°F 30.05in 0.0mph 82% 0.00in 25.99 watts/m^2
07:52 75.6°F - 69.8°F 30.05in 0.0mph 82% 0.00in 31.16 watts/m^2
07:57 75.6°F - 70.2°F 30.05in 0.0mph 83% 0.00in 40.09 watts/m^2
08:02 75.6°F - 70.2°F 30.06in 0.0mph 83% 0.00in 28.85 watts/m^2
08:07 75.6°F - 70.5°F 30.05in 0.0mph 84% 0.00in 36.50 watts/m^2
08:12 75.6°F - 70.5°F 30.05in 0.0mph 84% 0.00in 45.98 watts/m^2
08:17 75.7°F - 70.3°F 30.05in 0.0mph 83% 0.00in 38.02 watts/m^2
08:22 75.7°F - 70.3°F 30.04in 0.0mph 83% 0.00in 45.86 watts/m^2
08:27 75.7°F - 69.6°F 30.04in 0.0mph 81% 0.00in 42.34 watts/m^2
08:32 75.7°F - 69.6°F 30.04in 0.0mph 81% 0.00in 44.83 watts/m^2
08:37 75.7°F - 69.6°F 30.04in 0.0mph 81% 0.00in 88.58 watts/m^2
08:42 75.9°F - 69.4°F 30.04in 0.0mph 80% 0.00in 76.92 watts/m^2
08:48 75.9°F - 69.4°F 30.04in 0.0mph 80% 0.00in 92.28 watts/m^2
08:53 76.1°F - 69.1°F 30.04in 0.0mph 79% 0.00in 110.89 watts/m^2
08:58 76.3°F - 68.5°F 30.04in 0.0mph 77% 0.00in 82.95 watts/m^2
09:03 76.5°F - 68.7°F 30.03in 0.0mph 77% 0.00in 86.26 watts/m^2
09:08 76.8°F - 68.7°F 30.03in 0.0mph 76% 0.00in 81.05 watts/m^2
09:13 77.0°F - 69.3°F 30.03in 0.0mph 77% 0.00in 93.79 watts/m^2
09:18 77.2°F - 69.1°F 30.03in 0.0mph 76% 0.00in 79.68 watts/m^2
09:23 77.4°F - 69.3°F 30.03in 0.0mph 76% 0.00in 93.70 watts/m^2
09:28 77.5°F - 69.1°F 30.03in 0.0mph 75% 0.00in 114.06 watts/m^2
09:33 77.5°F - 69.1°F 30.02in 0.0mph 75% 0.00in 106.53 watts/m^2
09:38 77.7°F - 69.3°F 30.02in 0.0mph 75% 0.00in 137.55 watts/m^2
09:44 77.7°F - 68.4°F 30.03in 0.0mph 73% 0.00in 156.35 watts/m^2
09:49 78.1°F - 67.6°F 30.03in 0.0mph 70% 0.00in 132.62 watts/m^2
09:54 78.4°F - 67.5°F 30.02in 0.0mph 69% 0.00in 155.69 watts/m^2
09:59 78.6°F - 68.0°F 30.03in 0.0mph 70% 0.00in 154.12 watts/m^2
10:04 79.0°F - 68.4°F 30.02in 0.0mph 70% 0.00in 165.91 watts/m^2
10:09 79.3°F - 68.7°F 30.02in 0.0mph 70% 0.00in 115.15 watts/m^2
10:14 79.7°F - 68.7°F 30.02in 0.0mph 69% 0.00in 128.50 watts/m^2
10:19 79.9°F - 68.9°F 30.02in 0.0mph 69% 0.00in 117.71 watts/m^2
10:24 79.7°F - 69.4°F 30.03in 0.0mph 71% 0.00in 123.53 watts/m^2
10:29 79.7°F - 69.4°F 30.01in 0.0mph 71% 0.00in 114.91 watts/m^2
10:34 79.7°F - 69.4°F 30.01in 0.0mph 71% 0.00in 122.35 watts/m^2
10:40 79.7°F - 69.4°F 30.01in 0.0mph 71% 0.00in 117.52 watts/m^2
10:45 79.5°F - 69.3°F 30.02in 0.0mph 71% 0.00in 101.65 watts/m^2
10:50 79.5°F - 68.9°F 30.01in 0.0mph 70% 0.00in 130.30 watts/m^2
10:55 79.5°F - 68.9°F 30.01in 0.0mph 70% 0.00in 172.78 watts/m^2
11:00 79.7°F - 68.2°F 30.01in 0.0mph 68% 0.00in 145.88 watts/m^2
11:05 79.7°F - 68.7°F 30.01in 0.0mph 69% 0.00in 154.79 watts/m^2
11:10 79.9°F - 68.4°F 30.01in 0.0mph 68% 0.00in 161.61 watts/m^2
11:15 80.2°F 82.8°F 67.8°F 30.01in 0.0mph 66% 0.00in 295.81 watts/m^2
11:20 80.8°F 82.8°F 65.7°F 30.00in 0.0mph 60% 0.00in 433.29 watts/m^2
11:25 81.5°F 83.6°F 65.8°F 30.00in 0.0mph 59% 0.00in 427.22 watts/m^2
11:30 82.2°F 84.0°F 64.9°F 30.00in 0.0mph 56% 0.00in 457.63 watts/m^2
11:36 83.1°F 85.0°F 65.3°F 30.00in 0.0mph 55% 0.00in 511.42 watts/m^2
11:41 84.2°F 86.1°F 65.3°F 30.00in 0.0mph 53% 0.00in 494.42 watts/m^2
11:46 84.9°F 87.1°F 66.0°F 29.99in 0.0mph 53% 0.00in 498.26 watts/m^2
11:52 85.8°F 88.8°F 67.3°F 29.99in 0.0mph 54% 0.00in 513.32 watts/m^2
11:57 86.2°F 89.7°F 68.2°F 29.99in 0.0mph 55% 0.00in 530.60 watts/m^2
12:02 86.5°F 89.6°F 67.5°F 29.98in 0.0mph 53% 0.00in 474.39 watts/m^2
12:07 86.9°F 91.0°F 68.9°F 29.98in 0.0mph 55% 0.00in 170.03 watts/m^2
12:12 86.9°F 91.0°F 68.9°F 29.98in 0.0mph 55% 0.00in 482.16 watts/m^2
12:17 86.7°F 90.3°F 68.2°F 29.98in 0.0mph 54% 0.00in 224.49 watts/m^2
12:22 86.9°F 90.6°F 68.4°F 29.97in 0.0mph 54% 0.00in 367.18 watts/m^2
12:27 87.1°F 90.9°F 68.5°F 29.97in 0.0mph 54% 0.00in 464.26 watts/m^2
12:32 87.3°F 90.9°F 68.2°F 29.97in 0.0mph 53% 0.00in 492.53 watts/m^2
12:37 87.4°F 91.5°F 68.9°F 29.97in 0.0mph 54% 0.00in 298.37 watts/m^2
12:42 87.6°F 91.8°F 68.9°F 29.98in 0.0mph 54% 0.00in 507.49 watts/m^2
12:48 88.0°F 92.2°F 68.7°F 29.97in 0.0mph 53% 0.00in 512.04 watts/m^2
12:53 88.5°F 92.7°F 68.7°F 29.96in 0.0mph 52% 0.00in 524.49 watts/m^2
12:58 88.9°F 93.4°F 69.1°F 29.96in 0.0mph 52% 0.00in 536.10 watts/m^2
13:03 89.1°F 94.2°F 69.8°F 29.96in 0.0mph 53% 0.00in 452.32 watts/m^2
13:08 89.2°F 94.4°F 70.0°F 29.96in 0.0mph 53% 0.00in 477.28 watts/m^2
13:13 89.6°F 95.2°F 70.3°F 29.96in 0.0mph 53% 0.00in 559.25 watts/m^2
13:18 89.8°F 95.1°F 69.8°F 29.96in 0.0mph 52% 0.00in 503.61 watts/m^2
13:23 89.8°F 95.1°F 69.8°F 29.96in 0.0mph 52% 0.00in 511.90 watts/m^2
13:29 90.0°F 95.5°F 70.0°F 29.96in 0.0mph 52% 0.00in 497.22 watts/m^2
13:34 90.0°F 94.6°F 68.9°F 29.95in 0.0mph 50% 0.00in 480.17 watts/m^2
13:39 90.1°F 95.7°F 70.2°F 29.95in 0.0mph 52% 0.00in 507.16 watts/m^2
13:44 90.3°F 93.4°F 66.7°F 29.95in 0.0mph 46% 0.00in 133.90 watts/m^2
13:49 90.7°F 94.1°F 67.1°F 29.95in 0.0mph 46% 0.00in 530.84 watts/m^2
13:54 91.0°F 95.6°F 68.7°F 29.95in 0.0mph 48% 0.00in 513.32 watts/m^2
14:00 91.2°F 96.9°F 70.0°F 29.94in 0.0mph 50% 0.00in 535.39 watts/m^2
14:05 91.4°F 96.3°F 69.1°F 29.93in 0.0mph 48% 0.00in 524.68 watts/m^2
14:10 91.6°F 96.2°F 68.5°F 29.93in 0.0mph 47% 0.00in 531.93 watts/m^2
14:15 91.8°F 95.6°F 67.5°F 29.93in 0.0mph 45% 0.00in 533.07 watts/m^2
14:20 91.9°F 94.9°F 66.4°F 29.93in 0.0mph 43% 0.00in 531.27 watts/m^2
14:25 92.1°F 94.4°F 65.1°F 29.92in 0.0mph 41% 0.00in 522.03 watts/m^2
14:30 92.7°F 95.4°F 65.7°F 29.92in 0.0mph 41% 0.00in 519.52 watts/m^2
14:35 92.7°F 98.3°F 69.6°F 29.92in 0.0mph 47% 0.00in 507.64 watts/m^2
14:36 92.7°F 100.0°F 71.4°F 29.92in 0.0mph 50% 0.00in 510.57 watts/m^2
14:42 92.5°F 98.5°F 70.0°F 29.91in 0.0mph 48% 0.00in 508.25 watts/m^2
14:47 92.5°F 96.4°F 67.5°F 29.91in 0.0mph 44% 0.00in 489.12 watts/m^2
14:52 92.5°F 97.9°F 69.4°F 29.90in 0.0mph 47% 0.00in 161.37 watts/m^2
14:57 92.1°F 98.2°F 70.3°F 29.90in 0.0mph 49% 0.00in 94.93 watts/m^2
15:02 91.4°F 98.4°F 71.4°F 29.89in 0.0mph 52% 0.00in 94.83 watts/m^2
15:07 90.9°F 97.3°F 70.9°F 29.89in 0.0mph 52% 0.00in 107.29 watts/m^2
15:08 90.9°F 97.3°F 70.9°F 29.89in 0.0mph 52% 0.00in 95.69 watts/m^2
15:14 90.5°F 96.5°F 70.5°F 29.89in 0.0mph 52% 0.00in 105.35 watts/m^2
15:19 90.3°F 96.1°F 70.3°F 29.89in 0.0mph 52% 0.00in 76.49 watts/m^2
15:24 89.8°F 94.7°F 69.3°F 29.89in 0.0mph 51% 0.00in 63.18 watts/m^2
15:29 89.4°F 93.1°F 67.8°F 29.88in 0.0mph 49% 0.00in 66.53 watts/m^2
15:34 89.2°F 92.7°F 67.6°F 29.88in 0.0mph 49% 0.00in 71.21 watts/m^2
15:39 89.4°F 91.9°F 66.0°F 29.88in 0.0mph 46% 0.00in 54.49 watts/m^2
15:44 89.4°F 93.1°F 67.8°F 29.87in 0.0mph 49% 0.00in 63.00 watts/m^2
15:49 89.4°F 93.1°F 67.8°F 29.87in 0.0mph 49% 0.00in 61.24 watts/m^2
15:54 89.4°F 92.7°F 67.3°F 29.86in 0.0mph 48% 0.00in 52.31 watts/m^2
15:59 89.4°F 92.7°F 67.3°F 29.86in 0.0mph 48% 0.00in 48.84 watts/m^2
16:04 89.4°F 92.7°F 67.3°F 29.86in 0.0mph 48% 0.00in 50.85 watts/m^2
16:09 89.2°F 92.3°F 67.1°F 29.86in 0.0mph 48% 0.00in 55.22 watts/m^2
16:14 89.1°F 91.4°F 65.7°F 29.86in 0.0mph 46% 0.00in 47.38 watts/m^2
16:20 89.2°F 91.9°F 66.4°F 29.87in 0.0mph 47% 0.00in 52.49 watts/m^2
16:25 89.2°F 91.6°F 65.8°F 29.86in 0.0mph 46% 0.00in 60.45 watts/m^2
16:30 89.2°F 91.6°F 65.8°F 29.85in 0.0mph 46% 0.00in 77.10 watts/m^2
16:35 89.2°F 91.2°F 65.1°F 29.85in 0.0mph 45% 0.00in 52.49 watts/m^2
16:40 89.4°F 91.5°F 65.3°F 29.85in 0.0mph 45% 0.00in 37.48 watts/m^2
16:45 89.4°F 91.5°F 65.3°F 29.85in 0.0mph 45% 0.00in 43.31 watts/m^2
16:50 89.4°F 91.5°F 65.3°F 29.85in 0.0mph 45% 0.00in 34.44 watts/m^2
16:55 89.2°F 90.8°F 64.6°F 29.85in 0.0mph 44% 0.00in 31.40 watts/m^2
17:00 89.2°F 90.8°F 64.6°F 29.85in 0.0mph 44% 0.00in 51.39 watts/m^2
17:05 89.1°F 90.7°F 64.4°F 29.85in 0.0mph 44% 0.00in 45.26 watts/m^2
17:10 89.1°F 90.7°F 64.4°F 29.85in 0.0mph 44% 0.00in 32.37 watts/m^2
17:15 88.9°F 90.7°F 64.9°F 29.84in 0.0mph 45% 0.00in 29.58 watts/m^2
17:20 88.9°F 91.1°F 65.5°F 29.84in 0.0mph 46% 0.00in 27.63 watts/m^2
17:25 88.7°F 91.5°F 66.6°F 29.84in 0.0mph 48% 0.00in 39.48 watts/m^2
17:30 88.5°F 91.1°F 66.4°F 29.84in 0.0mph 48% 0.00in 37.05 watts/m^2
17:36 88.3°F 90.8°F 66.2°F 29.84in 0.0mph 48% 0.00in 37.66 watts/m^2
17:41 88.2°F 91.0°F 66.7°F 29.84in 0.0mph 49% 0.00in 28.00 watts/m^2
17:46 88.2°F 91.0°F 66.7°F 29.83in 0.0mph 49% 0.00in 34.56 watts/m^2
17:51 88.0°F 90.7°F 66.6°F 29.83in 0.0mph 49% 0.00in 18.70 watts/m^2
17:56 88.0°F 90.7°F 66.6°F 29.83in 0.0mph 49% 0.00in 17.91 watts/m^2
18:01 87.8°F 90.4°F 66.4°F 29.83in 0.0mph 49% 0.00in 16.45 watts/m^2
18:06 87.8°F 90.4°F 66.4°F 29.82in 0.0mph 49% 0.00in 16.08 watts/m^2
18:11 87.6°F 90.0°F 66.2°F 29.82in 0.0mph 49% 0.00in 20.03 watts/m^2
18:16 87.4°F 89.7°F 66.0°F 29.82in 0.0mph 49% 0.00in 17.97 watts/m^2
18:21 87.4°F 89.7°F 66.0°F 29.82in 0.0mph 49% 0.00in 16.94 watts/m^2
Comma Delimited File
Powered by Weather Underground, Inc.